Regional Weather Roundup
Issued by NWS

Home | Current Version | Previous Version | Graphics & Text | Print | Product List | Glossary On
Versions: 1 2 3 4 5 6 7 8 9 10 11 12 13 14 15 16 17 18 19 20 21 22 23 24 25 26 27
000
ASUS45 KBOU 211107
RWRCO

WEATHER ROUNDUP FOR COLORADO
NATIONAL WEATHER SERVICE DENVER/BOULDER CO
400 AM MST SAT JAN 21 2017

NOTE: "FAIR" INDICATES FEW OR NO CLOUDS BELOW 12000 FEET WITH NO
SIGNIFICANT WEATHER AND/OR OBSTRUCTIONS TO VISIBILITY.

COZ001>005-013-030-031-211200-
...NORTHWEST COLORADO...

CITY           SKY/WX    TMP DP  RH WIND       PRES   REMARKS
CRAIG          FAIR      17  11  77 CALM      29.34F
HAYDEN         FAIR      16   9  73 SE13      29.34F WCI   2
MEEKER         CLOUDY    20  16  84 N5        29.33F WCI  13
MOUNT WERNER   NOT AVBL
STEAMBOAT SPGS FAIR      13  12  92 CALM      29.36S
WALDEN           N/A     10   5  79 N3        29.36F
$$

COZ006>008-011-211200-
...WEST CENTRAL VALLEYS...

CITY           SKY/WX    TMP DP  RH WIND       PRES   REMARKS
GRAND JUNCTION CLOUDY    34  28  79 E12       29.34F WCI  25
MONTROSE       CLOUDY    32  18  56 E14       29.37F WCI  22
EAGLE          FAIR      10   8  92 E7        29.43F WCI  -1
RIFLE          CLOUDY    25  24  96 SE3       29.36F
DELTA          CLOUDY    33  29  85 N3        29.37F
NUCLA          LGT SNOW  32  30  93 S3        29.37F
$$

COZ017>023-064>068-211200-
...SOUTHWEST COLORADO...

CITY           SKY/WX    TMP DP  RH WIND       PRES   REMARKS
DURANGO        LGT SNOW  27  25  92 CALM      29.39F FOG
CORTEZ         LGT SNOW  33  29  85 VRB6      29.35F FOG     WCI  28
PAGOSA SPRINGS LGT SNOW  26  26  99 CALM      29.41F VSB 3/4
TELLURIDE      NOT AVBL
WOLF CREEK PAS CLOUDY    12  12 100 S9G17     29.43F WCI   0
$$

COZ009-010-012-014-032>034-037-058>063-211200-
...CENTRAL COLORADO...

CITY           SKY/WX    TMP DP  RH WIND       PRES   REMARKS
ASPEN          MOCLDY    15  10  80 CALM      29.34F
BUENA VISTA    FAIR       8   3  80 NW13      29.41F WCI  -8
COPPER MTN     FAIR      18   5  57 MISG      29.34F
BERTHOUD PASS  NOT AVBL
COTTONWOOD PAS FAIR      18  12  79 CALM      29.37F
GUNNISON       FAIR       7   3  84 SE3       29.44F
KREMMLING      SNOW     N/A N/A N/A CALM      29.43S VSB 1/4
LEADVILLE      FAIR       0  -4  83 CALM      29.35F
MONARCH PASS   CLOUDY    10   5  79 SW13G20   29.47F WCI  -5
SALIDA         FAIR      26  16  66 S9        29.47F WCI  17
SUNLIGHT       FOG       14  10  85 MISG      29.38F VSB 1/2
WILKERSON PASS FAIR      10   7  85 SW13G18   29.38F WCI  -5
$$

COZ069>075-211200-
...SAN LUIS VALLEY/SANGRE DE CRISTO MOUNTAINS...

CITY           SKY/WX    TMP DP  RH WIND       PRES   REMARKS
ALAMOSA        LGT SNOW  16  13  88 NW3       29.44F FOG
LA VETA PASS   MOCLDY    21  18  86 NE16G29   29.39F WCI   7
SAGUACHE       CLOUDY    14  10  85 NW7       29.47F WCI   4
$$

COZ035-036-038>040-211200-
...NORTHERN COLORADO FRONT RANGE...

CITY           SKY/WX    TMP DP  RH WIND       PRES   REMARKS
DENVER INTL AP FAIR      22  15  75 SW8       29.36S WCI  12
DMNS CITY PARK   N/A     27  21  79 MISG      29.37S
AURORA         PTCLDY    25  16  68 SW7       29.37S WCI  18
FRONT RANGE AP FAIR      27  19  74 S8        29.37S WCI  18
ERIE MUNI ARPT FAIR      23  21  94 CALM      29.38S
BOULDER MUN AP FAIR      28  27  93 CALM      29.37S
CENTENNIAL     FAIR      29  13  51 SW13      29.36F WCI  19
BROOMFIELD     FAIR      27  25  93 CALM      29.37S
FORT COLLINS   FAIR      25  21  86 N5        29.37F WCI  19
LONGMONT       FAIR      26  22  86 S3        29.39S
$$

COZ041-046-047-076>085-087-088-211200-
...PIKES PEAK/PALMER DIVIDE AND SOUTHERN FOOTHILLS...

CITY           SKY/WX    TMP DP  RH WIND       PRES   REMARKS
COLO. SPRINGS  FAIR      21  16  81 N6        29.39F WCI  13
A. F. ACADEMY  FAIR      25  21  85 SE3       29.37F
SCHRIEVER AFB  NOT AVBL
ELLICOTT         N/A    N/A N/A N/A S3        29.38F
FALCON         FAIR      23  16  73 CALM      29.39F
FORT CARSON    FAIR      22  19  89 N3        29.37F
LIMON          FOG       21  20  96 CALM      29.41R VSB 1/4
MONUMENT HILL  FAIR      23  12  63 SW3       29.38F
TRINIDAD       FAIR      20  12  71 NW7       29.40F WCI  11
$$

COZ042>045-048>051-090-091-211200-
...NORTHEAST COLORADO...

CITY           SKY/WX    TMP DP  RH WIND       PRES   REMARKS
GREELEY ARPT   FAIR      21  20  96 N3        29.38F
AKRON          FAIR      27  19  72 S5        29.37F WCI  22
BURLINGTON     FAIR      28  25  88 S3        29.40F
WRAY           NOT AVBL
STERLING       FAIR      23  21  93 CALM      29.38F
HOLYOKE        FAIR      27  23  86 W7        29.41F WCI  19
FORT MORGAN    FAIR      27  25  91 SE3       29.39F
$$

COZ086-089-092>099-211200-
...SOUTHEAST COLORADO...

CITY           SKY/WX    TMP DP  RH WIND       PRES   REMARKS
PUEBLO         FOG       29  28  96 CALM      29.41F VSB 1/2
LA JUNTA       FOG       23  20  88 NW6       29.42S VSB 1/4 WCI  16
LAMAR          FOG       21  19  92 S6        29.42S VSB 1/4 WCI  13
SPRINGFIELD      N/A     27  22  81 W5        29.40F WCI  22
$$




USA.gov is the U.S. government's official web portal to all federal, state and local government web resources and services.